Weather History for 94926 - December, 2013

Change the Weather History Date:

Saturday, December 21, 2013

  Actual Average Record
Temperature  
Mean Temperature 74 °F -  
Max Temperature 87 °F 81 °F - ()
Min Temperature 62 °F 54 °F - ()
Cooling Degree Days 10    
Growing Degree Days 24 (Base 50)    
Moisture  
Dew Point 57 °F    
Average Humidity 58    
Maximum Humidity 82    
Minimum Humidity 25    
Precipitation  
Precipitation 0.00 in 0.07 in - ()
Sea Level Pressure  
Sea Level Pressure 30.01 in    
Wind  
Wind Speed 8 mph ()    
Max Wind Speed 21 mph    
Max Gust Speed -    
Visibility 6.2 miles    
Events Rain    
T = Trace of Precipitation, MM = Missing Value Source: Averaged Metar Reports

Daily Weather History Graph

Daily Weather History Graph

Search for Another Location

Airport or City:

Trip Planner

Search our weather history database for the weather conditions in past years. The results will help you decide how hot, cold, wet, or windy it might be!

Date:

Astronomy

Dec. 21, 2013 Rise Set
Actual Time 5:44 AM AEDT 8:17 PM AEDT
Civil Twilight 5:14 AM AEDT 8:47 PM AEDT
Nautical Twilight 4:37 AM AEDT 9:24 PM AEDT
Astronomical Twilight 3:56 AM AEDT 10:05 PM AEDT
Moon 10:37 PM AEDT (12/21) 8:59 AM AEDT (12/21)
Length of Visible Light 15h 32m
Length of Day
14h 32m
Waning Gibbous, 88% of the Moon is Illuminated
Dec 21
Waning Gibbous
Dec 26
Last Quarter
Jan 1
New
Jan 8
First Quarter
Jan 16
Full

Hourly Weather History & Observations

Time (AEDT) Temp. Heat Index Dew Point Humidity Pressure Visibility Wind Dir Wind Speed Gust Speed Precip Events Conditions
12:00 AM 77 °F - 54 °F 35% 29.96 in - South 8.1 mph - -  
12:00 AM 77.0 °F - 55.4 °F 47% 30.01 in 6.2 mi South 8.1 mph - N/A Rain Light Rain
12:30 AM 75.2 °F - 59.0 °F 57% 30.01 in 6.2 mi South 15.0 mph - N/A   Scattered Clouds
1:00 AM 75.2 °F - 59.0 °F 57% 30.04 in 6.2 mi SE 8.1 mph - N/A Rain Light Rain Showers
1:30 AM 73.4 °F - 59.0 °F 61% 30.01 in 6.2 mi South 11.5 mph - N/A   Scattered Clouds
2:00 AM 72 °F - 58 °F 53% 29.96 in - SE 8.1 mph - -  
2:00 AM 71.6 °F - 59.0 °F 64% 30.01 in 6.2 mi SE 8.1 mph - N/A   Scattered Clouds
2:30 AM 69.8 °F - 59.0 °F 68% 30.01 in 6.2 mi SSW 5.8 mph - N/A   Unknown
3:00 AM 69 °F - 58 °F 60% 29.96 in - South 3.5 mph - -  
3:00 AM 69.8 °F - 59.0 °F 68% 30.01 in 6.2 mi South 3.5 mph - N/A   Unknown
3:30 AM 69.8 °F - 57.2 °F 64% 30.01 in 6.2 mi SSE 3.5 mph - N/A   Unknown
4:00 AM 68.0 °F - 53.6 °F 60% 30.01 in 6.2 mi SE 1.2 mph - N/A   Unknown
4:30 AM 64.4 °F - 53.6 °F 68% 30.01 in 6.2 mi Calm Calm - N/A   Unknown
5:00 AM 64 °F - 55 °F 64% 29.97 in - East 1.2 mph - -  
5:00 AM 64.4 °F - 55.4 °F 73% 30.04 in 6.2 mi East 1.2 mph - N/A   Unknown
5:30 AM 64.4 °F - 55.4 °F 73% 30.04 in 6.2 mi ESE 6.9 mph - N/A   Unknown
6:00 AM 65 °F - 55 °F 61% 29.99 in - SE 3.5 mph - -  
6:00 AM 64.4 °F - 55.4 °F 73% 30.04 in - SE 3.5 mph - N/A   Clear
6:30 AM 64.4 °F - 55.4 °F 73% 30.04 in - SE 4.6 mph - N/A   Clear
7:00 AM 68.0 °F - 57.2 °F 68% 30.06 in - SE 4.6 mph - N/A   Clear
7:30 AM 71.6 °F - 59.0 °F 64% 30.06 in - East 3.5 mph - N/A   Clear
8:00 AM 70 °F - 59 °F 59% 30.02 in - North 5.8 mph - -  
8:00 AM 69.8 °F - 59.0 °F 68% 30.06 in - North 5.8 mph - N/A   Clear
8:30 AM 73.4 °F - 59.0 °F 61% 30.06 in - NNE 6.9 mph - N/A   Clear
9:00 AM 74 °F - 59 °F 49% 30.02 in - ENE 8.1 mph - -  
9:00 AM 73.4 °F - 59.0 °F 61% 30.06 in - ENE 8.1 mph - N/A   Clear
9:30 AM 75.2 °F - 59.0 °F 57% 30.06 in - ENE 5.8 mph - N/A   Clear
10:00 AM 75.2 °F - 55.4 °F 50% 30.06 in - East 8.1 mph - N/A   Clear
10:30 AM 77.0 °F - 57.2 °F 50% 30.06 in - ENE 6.9 mph - N/A   Clear
11:00 AM 79 °F - 58 °F 38% 30.00 in - East 8.1 mph - -  
11:00 AM 78.8 °F - 57.2 °F 47% 30.06 in - East 8.1 mph - N/A   Clear
11:30 AM 80.6 °F 80.5 °F 55.4 °F 42% 30.04 in - East 10.4 mph - N/A   Clear
12:00 PM 83 °F - 58 °F 33% 29.99 in - NE 8.1 mph - -  
12:00 PM 82.4 °F 82.5 °F 59.0 °F 45% 30.04 in - NE 8.1 mph - N/A   Clear
12:30 PM 82.4 °F 81.4 °F 53.6 °F 37% 30.04 in 6.2 mi NE 10.4 mph - N/A   Mostly Cloudy
1:00 PM 82.4 °F 81.7 °F 55.4 °F 39% 30.01 in 6.2 mi ENE 11.5 mph - N/A   Mostly Cloudy
1:30 PM 86.0 °F 84.9 °F 57.2 °F 37% 30.01 in 6.2 mi NE 11.5 mph - N/A   Scattered Clouds
2:00 PM 86 °F - 56 °F 26% 29.94 in - NE 11.5 mph - -  
2:00 PM 86.0 °F 84.5 °F 55.4 °F 35% 30.01 in 6.2 mi NE 11.5 mph - N/A   Mostly Cloudy
2:30 PM 86.0 °F 84.5 °F 55.4 °F 35% 29.98 in 6.2 mi NE 10.4 mph - N/A   Mostly Cloudy
3:00 PM 86 °F - 55 °F 25% 29.92 in - NE 12.7 mph - -  
3:00 PM 86.0 °F 84.5 °F 55.4 °F 35% 29.98 in 6.2 mi NE 12.7 mph - N/A   Mostly Cloudy
3:30 PM 87.8 °F 86.5 °F 57.2 °F 35% 29.95 in 6.2 mi ENE 16.1 mph - N/A   Mostly Cloudy
4:00 PM 84.2 °F 83.0 °F 55.4 °F 37% 29.95 in 6.2 mi East 18.4 mph - N/A   Mostly Cloudy
4:30 PM 82.4 °F 82.0 °F 57.2 °F 42% 29.95 in 6.2 mi East 18.4 mph - N/A   Mostly Cloudy
5:00 PM 80 °F - 58 °F 36% 29.89 in - East 18.4 mph - -  
5:00 PM 80.6 °F 80.8 °F 57.2 °F 45% 29.95 in 6.2 mi East 18.4 mph - N/A   Mostly Cloudy
5:30 PM 77.0 °F - 59.0 °F 54% 29.95 in 6.2 mi East 20.7 mph - N/A   Mostly Cloudy
6:00 PM 74 °F - 58 °F 47% 29.92 in - ENE 19.6 mph - -  
6:00 PM 75.2 °F - 57.2 °F 53% 29.98 in 6.2 mi ENE 19.6 mph - N/A   Mostly Cloudy
6:30 PM 69.8 °F - 57.2 °F 64% 29.98 in 6.2 mi ENE 16.1 mph - N/A   Unknown
7:00 PM 68.0 °F - 57.2 °F 68% 30.01 in 6.2 mi East 15.0 mph - N/A   Unknown
7:30 PM 66.2 °F - 57.2 °F 73% 30.01 in 6.2 mi East 15.0 mph - N/A   Unknown
8:00 PM 65 °F - 57 °F 67% 29.97 in - ESE 10.4 mph - -  
8:00 PM 64.4 °F - 57.2 °F 77% 30.04 in 6.2 mi ESE 10.4 mph - N/A   Scattered Clouds
8:25 PM 64.4 °F - 57.2 °F 77% 30.04 in 6.2 mi ESE 11.5 mph - N/A   Mostly Cloudy
8:30 PM 64.4 °F - 57.2 °F 77% 30.04 in 6.2 mi ESE 10.4 mph - N/A   Scattered Clouds
9:00 PM 64 °F - 56 °F 69% 30.01 in - ESE 9.2 mph - -  
9:00 PM 64.4 °F - 57.2 °F 77% 30.06 in 6.2 mi ESE 9.2 mph - N/A   Overcast
9:30 PM 62.6 °F - 55.4 °F 77% 30.06 in 6.2 mi ESE 9.2 mph - N/A   Mostly Cloudy
10:00 PM 62.6 °F - 55.4 °F 77% 30.06 in 6.2 mi ESE 8.1 mph - N/A   Mostly Cloudy
10:30 PM 62.6 °F - 55.4 °F 77% 30.06 in 6.2 mi ESE 8.1 mph - N/A   Mostly Cloudy
10:33 PM 62.6 °F - 55.4 °F 77% 30.06 in 6.2 mi ESE 8.1 mph - N/A   Mostly Cloudy
10:58 PM 62.6 °F - 57.2 °F 82% 30.06 in 6.2 mi ESE 6.9 mph - N/A   Overcast
11:00 PM 63 °F - 56 °F 72% 30.02 in - ESE 6.9 mph - -  
11:00 PM 62.6 °F - 57.2 °F 82% 30.06 in 6.2 mi ESE 6.9 mph - N/A   Overcast
11:30 PM 64.4 °F - 57.2 °F 77% 30.06 in 6.2 mi SSE 5.8 mph - N/A   Overcast